Regional Weather Roundup
Issued by NWS

Home | Current Version | Previous Version | Graphics & Text | Print | Product List | Glossary On
Versions: 1 2 3 4 5 6 7 8 9 10 11 12 13 14 15 16 17 18 19 20 21 22 23 24 25 26 27 28 29 30 31 32 33 34 35 36 37 38 39 40 41 42 43 44 45 46 47 48 49 50
000
ASUS44 KMEG 240600
RWRTN
TENNESSEE HOURLY STATE WEATHER ROUNDUP
NATIONAL WEATHER SERVICE MEMPHIS TN
100 AM CDT SUN MAY 24 2015

TNZ002-004-019-021-049-052-054-088>092-240700-
WEST TENNESSEE

CITY           SKY/WX    TMP DP  RH WIND       PRES   REMARKS
MEMPHIS INTL   PTCLDY    73  57  57 SE8       30.12S
NWS MEMPHIS      N/A     69 N/A N/A MISG        N/A
JACKSON        CLEAR     68  58  70 VRB3      30.15F
DYERSBURG      CLEAR     66  48  52 SE5       30.14S
PARIS          CLEAR     64  55  72 SE7       30.17F
LEXINGTON      CLEAR     63  57  82 E5        30.16F
$$

TNZ008-025-027-028-033-062-065-066-240700-
NORTH MIDDLE TENNESSEE

CITY           SKY/WX    TMP DP  RH WIND       PRES   REMARKS
NASHVILLE      PTCLDY    67  55  65 SE6       30.22S
CLARKSVILLE    PTCLDY    62  55  77 SE5       30.19F
COOKEVILLE     CLEAR     57  52  82 SE3       30.26F
CROSSVILLE     PTCLDY    60  49  66 CALM      30.31F
$$

TNZ061-075-076-078-094-096-097-240700-
SOUTH MIDDLE TENNESSEE

CITY           SKY/WX    TMP DP  RH WIND       PRES   REMARKS
FAYETTEVILLE   CLEAR    N/A N/A N/A MISG      30.24S
TULLAHOMA      CLEAR     63  52  67 CALM      30.26S
WINCHESTER     CLEAR     70  48  46 SE14      30.24F
MCMINNVILLE    CLEAR     61  54  77 CALM      30.25F
COLUMBIA       CLEAR     61  57  88 CALM      30.20F
SHELBYVILLE    CLEAR     64  55  72 CALM      30.25S
$$

TNZ017-018-042-046-047-240700-
NORTHEAST TENNESSEE

CITY           SKY/WX    TMP DP  RH WIND       PRES   REMARKS
TRI CITIES     CLEAR     54  49  83 CALM      30.33F
ELIZABETHTON   CLEAR     52  46  82 N3        30.35F
$$

TNZ012-013-036-069-073-074-240700-
CENTRAL EAST TENNESSEE

CITY           SKY/WX    TMP DP  RH WIND       PRES   REMARKS
KNOXVILLE      PTCLDY    63  54  72 CALM      30.29S
OAK RIDGE      CLEAR     60  55  83 CALM      30.31F
GATLINBURG     CLEAR     55  54  94 CALM      30.30S
$$

TNZ083-085-099-240700-
SOUTHEAST TENNESSEE

CITY           SKY/WX    TMP DP  RH WIND       PRES   REMARKS
CHATTANOOGA    CLEAR     59  54  83 CALM      30.28F
$$

SKY/WX REPORTED AS FAIR MEANS FEW OR NO CLOUDS BELOW
12 THOUSAND FEET.




USA.gov is the U.S. government's official web portal to all federal, state and local government web resources and services.